Location: ???????????
(55.5758°N, 38.4970°E)
Time: 16:53:18
(UTC+00:00)

Cosmos 2322 - Pass Details

Date: 15 November 2025
Orbit: 841 x 852 km, 71.0° (Epoch: 14 December)

Event Time Altitude Azimuth Distance (km) Brightness Sun altitude
Exits shadow 01:40:17 61° 352° (N) 955 3.8 -27.9°
Drops below altitude 10° 01:45:13 10° 32° (NNE) 2,474 6.6 -27.2°
Sets 01:47:42 0° 35° (NE) 3,411 7.4 -26.8°
